sat.trackr.live / text

‹ back to catalog

YAOGAN-32 02B

NORAD 49384 · 2021-099B

PAYLOAD ACTIVE UNKNOWN

§ Identity

Operator
Country
PRC
Launch date
2021-11-03
Launch site
JSC
Launch vehicle
Mass (kg)
RCS (m²)

External: N2YO · Heavens-Above · Gunter

§ Orbital elements

Epoch: 2026-09-15T22:02:06.698112Z

Period
98.34 min
Inclination
98.2594°
Eccentricity
0.0000971
Mean motion
14.64314520 rev/d
Perigee alt
678.6 km
Apogee alt
680.0 km
Semi-major
7,057.4 km
B*
1.0732e-4
RAAN
32.9164°
Arg perigee
71.8983°
Mean anomaly
288.2325°
Rev number
25,964

§ Raw data

YAOGAN-32 02B1 49384U 21099B   26258.91813308  .00000518  00000+0  10732-3 0  99942 49384  98.2594  32.9164 0000971  71.8983 288.2325 14.64314520259641

JSON: /api/v1/satellites/49384 · /tle

For live sub-satellite position, see the globe view (requires WebGL).

§ Visibility from observer

Set your observer location to see the next 7 days of passes ≥ 10°. The values pass through the URL so the page stays shareable.

No JS? Fill the form by hand. The geolocation button needs JavaScript.